www.pogodaiklimat.ru

Погода и климат >> Архив погоды >> Южная Африка >> Ламбертс-Бей


ПОГОДА в Ламбертс-Бей

  • Прогноз погоды в Ламбертс-Бей
  • Монитор погоды в Ламбертс-Бей

АРХИВ ПОГОДЫ в Ламбертс-Бей

Время (UTC), дата Ветер
(напр.,м/с)
 
Видим.   Явления Облачность Т
(С)
Тd
(С)
f
(%)
Тe
(С)
Тes
(С)
Комфортность P
(гПа)
Po
(гПа)
Тmin
(С)
Tmax
(С)
R
(мм)
R24
(мм)
S
(см)
18 18.08 ЮЗ 3 н/о н/о +13.7 +13.0 96 +12 +12 1022.3 1011.0 +13.7 +19.1
21 18.08 Ю 2 н/о н/о +12.2 +11.8 97 +11 +11 1023.4 1012.0 +12.1 +19.1
00 19.08 Ю 4 н/о н/о +12.3 +11.9 97 +10 +10 1025.2 1013.8 +11.7 +19.1
03 19.08 ЮВ 2 н/о н/о +10.7 +10.3 97 +9 +9 1026.2 1014.7 +10.3 +19.1
06 19.08 Ю 3 н/о н/о +10.8 +10.4 97 +9 +9 1028.5 1017.0 +10.3 0.2
09 19.08 ЮЗ 3 н/о н/о +17.4 +11.7 69 +17 +17 1028.6 1017.4 +10.3 +17.5
12 19.08 ЮЗ 6 н/о н/о +18.5 +9.4 55 +18 +18 1027.5 1016.3 +10.3 +18.5
15 19.08 ЮЗ 6 н/о н/о +16.1 +10.0 67 +15 +15 1027.9 1016.6 +16.1 +19.1
18 19.08 Ю 5 н/о н/о +13.0 +7.7 70 +11 +11 1028.8 1017.4 +12.6 +19.1
21 19.08 Ю 4 н/о н/о +10.0 +6.9 81 +8 +8 1029.6 1018.0 +9.8 +19.1
00 20.08 ЮВ 4 н/о н/о +9.4 +6.8 84 +6 +6 1029.4 1017.8 +8.6 +19.1
03 20.08 ЮВ 3 н/о н/о +8.4 +6.0 85 +6 +6 1028.7 1017.1 +7.1 +19.1
06 20.08 Ю 2 н/о н/о +9.3 +5.8 79 +8 +8 1029.4 1017.8 +6.8
09 20.08 ЮЗ 2 н/о н/о +17.1 +9.6 61 +17 +17 1029.3 1018.0 +6.8 +20.3
12 20.08 ЮЗ 3 н/о н/о +21.6 +8.3 42 +23 +23 комфорт 1026.4 1015.3 +6.8 +21.6
15 20.08 Ю 4 н/о н/о +19.3 +10.6 57 +20 +20 1024.3 1013.2 +19.3 +22.0
18 20.08 ЮВ 3 н/о н/о +14.5 +8.0 65 +14 +14 1024.5 1013.2 +14.0 +22.0
21 20.08 В 5 н/о н/о +14.6 +6.9 60 +13 +13 1024.0 1012.7 +13.4 +22.0
00 21.08 В 5 н/о н/о +15.5 +3.0 43 +14 +14 1024.1 1012.8 +13.4 +22.0
03 21.08 СВ 6 н/о н/о +17.5 -0.1 30 +17 +17 1022.3 1011.1 +13.4 +22.0
06 21.08 СВ 5 н/о н/о +17.4 -0.2 30 +17 +17 1023.1 1011.9 +13.4
09 21.08 СВ 7 н/о н/о +26.2 -1.3 16 +24 +24 комфорт 1022.4 1011.6 +13.4 +26.6
12 21.08 С 5 н/о н/о +32.6 -3.9 9 +29 +29 жарко 1019.6 1009.0 +13.4 +32.6
15 21.08 З 1 н/о н/о +30.9 -1.4 12 +28 +28 жарко 1018.1 1007.5 +30.9 +34.2
18 21.08 ЮВ 3 н/о н/о +20.6 -1.6 22 +21 +21 комфорт 1018.9 1007.9 +20.6 +34.2
21 21.08 СВ 1 н/о н/о +19.2 -4.8 19 +20 +20 1019.3 1008.2 +16.5 +34.2
00 22.08 С 3 н/о н/о +14.6 -0.5 35 +14 +14 1020.1 1008.8 +14.5 +34.2
03 22.08 В 3 н/о н/о +15.6 -2.2 29 +15 +15 1019.3 1008.1 +13.2 +34.2
06 22.08 В 3 н/о н/о +16.5 -1.9 28 +16 +16 1020.6 1009.4 +13.2
09 22.08 В 2 н/о н/о +28.1 +1.0 17 +26 +26 жарко 1020.6 1009.8 +13.2 +28.1
12 22.08 Ю 5 н/о н/о +28.6 +0.6 16 +26 +26 жарко 1018.8 1008.1 +13.2 +30.1
15 22.08 Ю 4 н/о н/о +26.2 +3.0 22 +25 +25 комфорт 1019.6 1008.8 +24.3 +30.9
18 22.08 Ю 3 н/о н/о +17.3 +10.7 65 +17 +17 1020.7 1009.5 +17.1 +30.9
21 22.08 В 2 н/о н/о +14.4 +8.6 68 +14 +14 1021.3 1010.0 +14.4 +30.9
00 23.08 ЮВ 3 н/о н/о +13.5 +5.7 59 +13 +13 1021.6 1010.3 +11.9 +30.9
03 23.08 С 3 н/о н/о +12.7 +2.8 51 +12 +12 1021.2 1009.9 +11.4 +30.9
06 23.08 В 3 н/о н/о +15.4 +1.2 38 +15 +15 1022.3 1011.0 +9.4
09 23.08 ЮВ 2 н/о н/о +27.6 +2.9 20 +26 +26 жарко 1021.9 1011.1 +9.4 +27.6
12 23.08 ЮЗ 3 н/о н/о +24.8 +7.6 33 +25 +25 комфорт 1019.9 1009.0 +9.4 +28.2
15 23.08 ЮЗ 3 н/о н/о +21.7 +11.2 51 +24 +24 комфорт 1019.2 1008.2 +21.6 +28.2
18 23.08 Ю 3 н/о н/о +17.8 +7.9 52 +18 +18 1020.0 1008.9 +17.7 +28.2
21 23.08 В 4 н/о н/о +17.3 +3.3 39 +17 +17 1020.9 1009.7 +16.4 +28.2
00 24.08 СВ 1 н/о н/о +12.3 +7.8 74 +12 +12 1021.1 1009.7 +12.0 +28.2
03 24.08 СВ 1 н/о н/о +12.6 +4.1 56 +13 +13 1020.5 1009.2 +12.0 +28.2
06 24.08 СВ 2 н/о н/о +14.0 +1.7 43 +14 +14 1020.9 1009.6 +12.0
09 24.08 З 2 н/о н/о +22.7 +9.6 43 +24 +24 комфорт 1020.4 1009.4 +12.0 +22.7
12 24.08 ЮЗ 3 н/о н/о +22.8 +7.5 37 +24 +24 комфорт 1018.5 1007.6 +12.0 +24.1
15 24.08 ЮЗ 4 н/о н/о +20.6 +3.5 32 +21 +21 комфорт 1018.3 1007.3 +20.0 +24.1
18 24.08 Ю 3 н/о н/о +13.9 +2.5 46 +13 +13 1019.7 1008.4 +13.9 +24.1
21 24.08 В 3 н/о н/о +14.5 -2.7 30 +14 +14 1020.6 1009.3 +13.1 +24.1
00 25.08 СВ 3 н/о н/о +9.0 +1.9 61 +7 +7 1021.1 1009.6 +8.9 +24.1
03 25.08 СВ 2 н/о н/о +10.3 +10.1 99 +9 +9 1020.6 1009.2 +8.4 +24.1
06 25.08 В 2 н/о н/о +9.3 +9.3 100 +7 +7 1021.7 1010.2 +7.2
09 25.08 З 2 н/о н/о +15.8 +13.3 85 +16 +16 1022.1 1010.9 +7.2 +15.8
12 25.08 ЮЗ 4 н/о н/о +17.8 +12.3 70 +18 +18 1020.4 1009.3 +7.2 +18.9
15 25.08 ЮЗ 4 н/о н/о +16.2 +12.4 78 +16 +16 1020.0 1008.8 +16.2 +18.9

 

Местоположение метеостанции Ламбертс-Бей (Южная Африка): широта -32.03 долгота 18.33 высота над уровнем моря 94 м.

В архиве по умолчанию представлена погода в Ламбертс-Бей за последнюю неделю. Архивные данные за месяц целиком и за предыдущие месяцы, начиная с января 2011 года, Вы можете получить, выбрав интересующий диапазон дат из раскрывающегося списка и нажав кнопку "Ввод!".


*Определитесь, кто Вы:
робот инопланетянин человек

Внимание! Время в таблицах - всемирное. Для получения местного времени необходимо прибавить поправку, которая равна 2 ч.

Смотрите также архив погоды в соседних городах и на ближайших метеорологических станциях:

Погода в Фридендале (Южная Африка) (44 км)
Погода в Клануильяме (Южная Африка) (55 км)
Погода на Мысе Колумбайн (Южная Африка) (100 км)
Погода в Лангебаанвеге (Южная Африка) (105 км)
Погода в Ниеувоудтвилле (Южная Африка) (105 км)
Погода в Лангебане (Южная Африка) (120 км)
Погода в Гилбеке (Южная Африка) (132 км)
Погода на Станции Excelsior Ceres (Южная Африка) (146 км)
Погода в Кальвинии (Южная Африка) (150 км)
Погода в Малмсбери (Южная Африка) (163 км)

Пояснения к столбцам:

Ветер - указаны скорость ветра в м/с - средняя за 10 мин, порывы в срок и между сроками (в фигурных скобках) и направление, откуда дует ветер: С - северный, СВ - северо-восточный, В - восточный, ЮВ - юго-восточный, Ю - южный, ЮЗ - юго-западный, З - западный, СЗ - северо-западный.
Видимость - горизонтальная дальность видимости в метрах или километрах. При видимости от 1 до 10 км при отсутствии осадков обычно наблюдается дымка, при ухудшении видимости до 1 км и менее - туман. В сухую погоду видимость может ухудшаться дымом, пылью или мглою.
Явления - указаны атмосферные явления, наблюдавшиеся в срок или в последний час перед сроком; фигурными скобками обозначены явления, наблюдавшиеся между сроками (за 1-3 часа до срока); квадратными скобками обозначены град или гололедные отложения с указанием их диаметра в мм.
Облачность - указаны через наклонную черту общая и нижняя облачность в баллах и высота нижней границы облаков в метрах; квадратными скобками обозначены формы облаков: Ci - перистые, Cs - перисто-слоистые, Cc - перисто-кучевые, Ac - высококучевые, As - высокослоистые, Sc - слоисто-кучевые, Ns - слоисто-дождевые, Cu - кучевые, Cb - кучево-дождевые. Подробнее классификацию облаков см. в Атласе облаков (PDF).
T - Температура воздуха - температура, измеренная на высоте 2 м над землей.
Td - Температура точки росы - температура, при понижении до которой содержащийся в воздухе водяной пар достигнет насыщения.
f - Относительная влажность воздуха - влажноcть воздуха, измеренная на высоте 2 м над землей.
Te - Эффективная температура - температура, которую ощущает одетый по сезону человек в тени. Характеристика душности погоды. При расчете учитывается влияние влажности воздуха и скорости ветра на теплоощущения человека.
Tes - Эффективная температура на солнце - температура, которую ощущает человек, с поправкой на солнечный нагрев. Характеристика знойности погоды. Зависит от высоты солнца над горизонтом, облачности и скорости ветра. Ночью, в пасмурную погоду, а также при ветре 12 м/с и более поправка равна нулю.
P - Атмосферное давление - приведенное к уровню моря атмосферное давление.
Po - Атмосферное давление - измеренное на уровне метеостанции атмосферное давление.
Tmin - Минимальная температура - минимум температуры воздуха на высоте 2 м над землей.
Tmax - Максимальная температура - максимум температуры воздуха на высоте 2 м над землей.
R - Количество осадков - Количество выпавших осадков за период времени, мм. При наведении курсора мыши на число - период времени, за который выпало указанное количество осадков.
R24 - Количество осадков - Количество выпавших осадков за 24 часа, мм.
S - Снежный покров - Высота снежного покрова, см. При наведении курсора мыши на число - состояние снежного покрова и степень покрытия местности в баллах.